Home   Weather   Tokyo   Past weeks

Flag for Japan Past Weather in Tokyo, Japan — Yesterday and Last 2 Weeks

Now
45 °F

Cool.


Feels Like: 40 °F
Forecast: 38 / 48 °F
Wind: 10 mph from Northwest

Location: Tokyo

Current Time: Dec 6, 2016 at 11:26:49 pm

Latest Report: Dec 6, 2016 at 10:00 pm


Visibility: N/A

Pressure: 30.03 "Hg

Humidity: 48%

Dew Point: 27 °F

Location of TokyoLocation

Past Weather in Tokyo — Graph

°F

Tokyo Temperature Yesterday

Maximum temperature yesterday: 65 °F (at 2:00 pm)
Minimum temperature yesterday: 47 °F (at 7:00 am)
Average temperature yesterday: 55 °F

High & Low Weather Summary for the Past Weeks

 TemperatureHumidityPressure
High66 °F (Nov 22, 2:00 pm)100% (Nov 22, 4:00 am)30.52 "Hg (Nov 22, 4:00 am)
Low33 °F (Nov 25, 5:00 am)35% (Dec 2, 1:00 pm)29.72 "Hg (Dec 6, 6:00 am)
Average50 °F70%30.09 "Hg
* Reported Nov 21 10:00 pm — Dec 6 10:00 pm, Tokyo, Weather by CustomWeather, © 2016

Note: Actual official high and low records may vary slightly from our data, if they occured in-between our weather recording intervals... More about our weather records

Advertising

Tokyo Weather History for the Previous 24 Hours

Scroll right to see more
 ConditionsComfort  
Time TempWeatherWind HumidityBarometerVisibility
10:00 pm
Tue, Dec 6
45 °FCool.10 mph48%30.03 "HgN/A
9:00 pm46 °FClear.10 mph46%30.02 "Hg12 mi
8:00 pm46 °FCool.10 mph45%30.01 "HgN/A
7:00 pm47 °FCool.13 mph44%29.99 "HgN/A
6:00 pm48 °FClear.12 mph42%29.95 "Hg12 mi
5:00 pm50 °FCool.14 mph42%29.92 "HgN/A
4:00 pm52 °FCool.12 mph37%29.89 "HgN/A
3:00 pm55 °FPassing clouds.17 mph39%29.84 "Hg19 mi
2:00 pm57 °FRefreshingly cool.18 mph37%29.81 "HgN/A
1:00 pm60 °FRefreshingly cool.9 mph39%29.80 "HgN/A
12:00 pm60 °FPassing clouds.14 mph42%29.78 "Hg19 mi
11:00 am62 °FRefreshingly cool.9 mph47%29.77 "HgN/A
10:00 am60 °FCool.3 mph61%29.77 "HgN/A
9:00 am56 °FPassing clouds.6 mph73%29.76 "Hg16 mi
8:00 am53 °FCool.2 mph87%29.73 "HgN/A
7:00 am48 °FCool.5 mph90%29.72 "HgN/A
6:00 am48 °FOvercast.2 mph89%29.72 "Hg9 mi
5:00 am49 °FCool.2 mph84%29.74 "HgN/A
4:00 am49 °FCool.2 mph81%29.75 "HgN/A
3:00 am50 °FOvercast.3 mph93%29.76 "Hg9 mi
2:00 am52 °FCool.3 mph84%29.80 "HgN/A
1:00 am54 °FCool.7 mph77%29.80 "HgN/A
12:00 am55 °FCool.5 mph74%29.82 "HgN/A
11:00 pm
Mon, Dec 5
55 °FCool.7 mph88%29.84 "HgN/A
Weather by CustomWeather, © 2016

See weather overviewHow to use our weather pages